OBJECT M

基本信息
目录编号:
63993
目录名称:
OBJECT M
国际标识:
2025-100M
轨道中心:
EARTH
物体状态:
在轨
发射日期:
2025-05-14 UTC
国别:
中国 (CN)
轨道信息
数据来源: 国际轨道数据
星历时间: 2026-09-04T00:55:58+0800
半长轴: 6855.756km
偏心率: 0.0006844
轨道倾角: 97.360°
近地点辐角: 54.085°
升交点赤经: 322.918°
平近点角: 306.103°
近地点: 472.926km
远地点: 482.312km
周期: 94.155分钟
每日圈数: 15.293953
详细信息
发射场:
JSC
轨道高度:
LEO
数据来源:
AOE Working Group
参考系:
TEME
时间系统:
UTC
历元类型:
SGP4
2D轨道图
3D轨道图
轨道高度分析图
轨道倾角分析图
轨道综合分析图
查看轨道综合分析图